TimeAKDT,TemperatureF,Dew PointF,Humidity,Sea Level PressureIn,VisibilityMPH,Wind Direction,Wind SpeedMPH,Gust SpeedMPH,PrecipitationIn,Events,Conditions,WindDirDegrees,DateUTC
12:16 AM,33.8,26.6,75,30.30,10.0,NE,10.4,-,N/A,,Clear,40,2012-10-27 08:16:00
12:36 AM,32.0,24.8,75,30.29,10.0,NE,11.5,-,N/A,,Clear,40,2012-10-27 08:36:00
12:56 AM,32.0,24.8,75,30.29,10.0,NE,9.2,-,N/A,,Clear,40,2012-10-27 08:56:00
1:16 AM,32.0,24.8,75,30.29,10.0,NE,8.1,-,N/A,,Clear,40,2012-10-27 09:16:00
1:36 AM,32.0,24.8,75,30.28,10.0,NE,10.4,-,N/A,,Clear,40,2012-10-27 09:36:00
1:56 AM,32.0,24.8,75,30.28,10.0,NE,8.1,-,N/A,,Clear,40,2012-10-27 09:56:00
2:16 AM,32.0,24.8,75,30.28,10.0,NE,8.1,-,N/A,,Clear,40,2012-10-27 10:16:00
2:36 AM,32.0,24.8,75,30.28,10.0,NE,9.2,-,N/A,,Clear,50,2012-10-27 10:36:00
2:56 AM,32.0,26.6,80,30.28,10.0,NE,6.9,-,N/A,,Clear,50,2012-10-27 10:56:00
3:16 AM,32.0,26.6,80,30.28,10.0,NE,6.9,-,N/A,,Clear,40,2012-10-27 11:16:00
3:36 AM,32.0,26.6,80,30.27,10.0,NE,11.5,-,N/A,,Clear,40,2012-10-27 11:36:00
3:56 AM,30.2,26.6,86,30.27,10.0,NE,9.2,-,N/A,,Clear,50,2012-10-27 11:56:00
4:16 AM,30.2,24.8,80,30.26,10.0,NE,11.5,-,N/A,,Clear,50,2012-10-27 12:16:00
4:36 AM,30.2,26.6,86,30.26,10.0,NE,11.5,-,N/A,,Clear,50,2012-10-27 12:36:00
4:56 AM,30.2,26.6,86,30.25,10.0,ENE,8.1,-,N/A,,Clear,60,2012-10-27 12:56:00
5:16 AM,30.2,26.6,86,30.25,10.0,Calm,Calm,-,N/A,,Clear,0,2012-10-27 13:16:00
5:36 AM,30.2,26.6,86,30.25,10.0,ENE,3.5,-,N/A,,Clear,70,2012-10-27 13:36:00
5:56 AM,30.2,26.6,86,30.25,10.0,Calm,Calm,-,N/A,,Clear,0,2012-10-27 13:56:00
6:16 AM,30.2,24.8,80,30.24,10.0,NE,6.9,-,N/A,,Clear,40,2012-10-27 14:16:00
6:56 AM,30.2,24.8,80,30.22,10.0,NE,6.9,-,N/A,,Clear,40,2012-10-27 14:56:00
7:16 AM,30.2,24.8,80,30.21,10.0,NE,9.2,-,N/A,,Clear,40,2012-10-27 15:16:00
7:36 AM,30.2,24.8,80,30.22,10.0,Calm,Calm,-,N/A,,Clear,0,2012-10-27 15:36:00
7:56 AM,28.4,23.0,80,30.22,10.0,NE,10.4,-,N/A,,Clear,50,2012-10-27 15:56:00
8:16 AM,30.2,24.8,80,30.21,10.0,ENE,5.8,-,N/A,,Clear,70,2012-10-27 16:16:00
8:36 AM,28.4,24.8,86,30.21,10.0,ENE,8.1,-,N/A,,Clear,60,2012-10-27 16:36:00
8:56 AM,30.2,24.8,80,30.20,10.0,NE,11.5,-,N/A,,Clear,40,2012-10-27 16:56:00
9:16 AM,30.2,24.8,80,30.21,10.0,NE,10.4,-,N/A,,Clear,40,2012-10-27 17:16:00
9:36 AM,30.2,23.0,75,30.21,10.0,NE,10.4,-,N/A,,Clear,40,2012-10-27 17:36:00
9:56 AM,30.2,23.0,75,30.21,10.0,ENE,8.1,-,N/A,,Clear,60,2012-10-27 17:56:00
10:16 AM,30.2,24.8,80,30.21,10.0,ENE,8.1,-,N/A,,Clear,70,2012-10-27 18:16:00
10:36 AM,30.2,24.8,80,30.19,10.0,NE,15.0,-,N/A,,Clear,50,2012-10-27 18:36:00
10:56 AM,30.2,23.0,75,30.20,10.0,ENE,9.2,-,N/A,,Clear,60,2012-10-27 18:56:00
11:16 AM,30.2,24.8,80,30.20,10.0,ENE,4.6,-,N/A,,Clear,70,2012-10-27 19:16:00
11:36 AM,32.0,23.0,69,30.20,10.0,ENE,10.4,-,N/A,,Clear,70,2012-10-27 19:36:00
11:56 AM,32.0,24.8,75,30.19,10.0,ENE,9.2,-,N/A,,Clear,70,2012-10-27 19:56:00
12:16 PM,33.8,24.8,70,30.20,10.0,ENE,6.9,-,N/A,,Clear,70,2012-10-27 20:16:00
12:36 PM,33.8,24.8,70,30.19,10.0,East,9.2,-,N/A,,Clear,80,2012-10-27 20:36:00
12:56 PM,33.8,24.8,70,30.19,10.0,ENE,11.5,-,N/A,,Clear,70,2012-10-27 20:56:00
1:16 PM,33.8,24.8,70,30.18,10.0,ENE,12.7,-,N/A,,Clear,70,2012-10-27 21:16:00
1:36 PM,33.8,24.8,70,30.18,10.0,ENE,12.7,-,N/A,,Clear,70,2012-10-27 21:36:00
1:56 PM,35.6,24.8,65,30.18,10.0,ENE,13.8,-,N/A,,Clear,60,2012-10-27 21:56:00
2:16 PM,33.8,24.8,70,30.19,10.0,ENE,9.2,-,N/A,,Clear,70,2012-10-27 22:16:00
2:36 PM,35.6,24.8,65,30.18,10.0,NE,10.4,-,N/A,,Clear,50,2012-10-27 22:36:00
2:56 PM,35.6,24.8,65,30.18,10.0,NE,9.2,-,N/A,,Clear,40,2012-10-27 22:56:00
3:16 PM,33.8,24.8,70,30.18,10.0,NE,8.1,-,N/A,,Clear,40,2012-10-27 23:16:00
3:36 PM,33.8,24.8,70,30.17,10.0,NE,9.2,-,N/A,,Clear,40,2012-10-27 23:36:00
3:56 PM,33.8,26.6,75,30.17,10.0,NNE,8.1,-,N/A,,Clear,30,2012-10-27 23:56:00
4:36 PM,35.6,26.6,70,30.17,10.0,NNE,5.8,-,N/A,,Clear,30,2012-10-28 00:36:00
4:56 PM,33.8,26.6,75,30.16,10.0,NE,11.5,-,N/A,,Clear,40,2012-10-28 00:56:00
5:16 PM,33.8,26.6,75,30.16,10.0,NE,13.8,-,N/A,,Clear,40,2012-10-28 01:16:00
5:36 PM,33.8,26.6,75,30.17,10.0,NE,10.4,-,N/A,,Clear,40,2012-10-28 01:36:00
5:56 PM,33.8,26.6,75,30.17,10.0,NNE,10.4,-,N/A,,Clear,30,2012-10-28 01:56:00
6:16 PM,33.8,26.6,75,30.16,10.0,NNE,9.2,-,N/A,,Clear,30,2012-10-28 02:16:00
6:36 PM,33.8,26.6,75,30.17,10.0,NNE,10.4,-,N/A,,Clear,30,2012-10-28 02:36:00
6:56 PM,32.0,24.8,75,30.17,10.0,NE,9.2,-,N/A,,Clear,40,2012-10-28 02:56:00
7:16 PM,32.0,24.8,75,30.17,10.0,NE,8.1,-,N/A,,Clear,40,2012-10-28 03:16:00
7:36 PM,32.0,24.8,75,30.16,10.0,NE,11.5,-,N/A,,Clear,40,2012-10-28 03:36:00
7:56 PM,32.0,24.8,75,30.16,10.0,NE,15.0,-,N/A,,Clear,50,2012-10-28 03:56:00
8:16 PM,32.0,24.8,75,30.16,10.0,NE,12.7,-,N/A,,Clear,50,2012-10-28 04:16:00
8:36 PM,32.0,24.8,75,30.17,10.0,NE,5.8,-,N/A,,Clear,50,2012-10-28 04:36:00
8:56 PM,32.0,26.6,80,30.17,10.0,Calm,Calm,-,N/A,,Clear,0,2012-10-28 04:56:00
9:16 PM,32.0,24.8,75,30.17,10.0,ENE,3.5,-,N/A,,Clear,60,2012-10-28 05:16:00
9:36 PM,32.0,26.6,80,30.17,10.0,NE,4.6,-,N/A,,Clear,40,2012-10-28 05:36:00
9:56 PM,32.0,26.6,80,30.16,10.0,NE,6.9,-,N/A,,Clear,40,2012-10-28 05:56:00
10:16 PM,32.0,24.8,75,30.17,10.0,ENE,5.8,-,N/A,,Clear,60,2012-10-28 06:16:00
10:36 PM,32.0,24.8,75,30.17,10.0,NE,8.1,-,N/A,,Clear,50,2012-10-28 06:36:00
10:56 PM,32.0,24.8,75,30.16,10.0,NE,9.2,-,N/A,,Clear,50,2012-10-28 06:56:00
11:16 PM,32.0,24.8,75,30.17,10.0,ENE,5.8,-,N/A,,Clear,70,2012-10-28 07:16:00
11:36 PM,30.2,24.8,80,30.17,10.0,ENE,10.4,-,N/A,,Clear,60,2012-10-28 07:36:00
11:56 PM,32.0,26.6,80,30.16,10.0,ENE,10.4,-,N/A,,Clear,60,2012-10-28 07:56:00